Cosmos 1953 - Orbit

View from above orbital plane
View from above orbital plane
View from above satellite
View from above satellite

Ground track
Ground track

The orbit data is extracted from the following two-line orbital elements,

1 19210U 88050A   13142.78052185  .00001428  00000-0  11336-3 0  1063
2 19210 082.5214 029.6481 0013620 275.1984 084.7685 14.99724571354543
Epoch (UTC): 22 May 2013 18:43:57
Eccentricity: 0.0013620
inclination: 82.5214°
perigee height: 558 km
apogee height: 577 km
right ascension of ascending node: 29.6481°
argument of perigee: 275.1984°
revolutions per day: 14.99724571
mean anomaly at epoch: 84.7685°
orbit number at epoch: 35454

The dashed part of the orbit path shows where the satellite is in the earth's shadow,  

Developed and maintained by Chris Peat, Heavens-Above GmbH. Please read the updated FAQ before sending e-mail. Imprint. DLR